Year,Month,Day,Hour,Minute,Value (Times are PST for temperature in C)
2017,02,27,00,01,2.90
2017,02,27,00,02,2.90
2017,02,27,00,03,2.80
2017,02,27,00,04,2.80
2017,02,27,00,06,2.80
2017,02,27,00,07,2.80
2017,02,27,00,09,2.80
2017,02,27,00,11,2.70
2017,02,27,00,12,2.70
2017,02,27,00,13,2.70
2017,02,27,00,14,2.70
2017,02,27,00,16,2.70
2017,02,27,00,17,2.70
2017,02,27,00,18,2.70
2017,02,27,00,19,2.70
2017,02,27,00,21,2.70
2017,02,27,00,22,2.70
2017,02,27,00,23,2.70
2017,02,27,00,24,2.70
2017,02,27,00,26,2.70
2017,02,27,00,27,2.80
2017,02,27,00,28,2.80
2017,02,27,00,29,2.80
2017,02,27,00,31,2.80
2017,02,27,00,32,2.80
2017,02,27,00,33,2.80
2017,02,27,00,34,2.90
2017,02,27,00,36,2.90
2017,02,27,00,37,2.90
2017,02,27,00,38,2.90
2017,02,27,00,39,2.90
2017,02,27,00,41,2.90
2017,02,27,00,42,2.90
2017,02,27,00,43,2.90
2017,02,27,00,44,2.90
2017,02,27,00,46,2.90
2017,02,27,00,47,2.90
2017,02,27,00,48,2.90
2017,02,27,00,49,2.90
2017,02,27,00,51,2.80
2017,02,27,00,52,2.80
2017,02,27,00,53,2.80
2017,02,27,00,54,2.80
2017,02,27,00,56,2.70
2017,02,27,00,57,2.70
2017,02,27,00,58,2.70
2017,02,27,00,59,2.70
2017,02,27,01,01,2.70
2017,02,27,01,02,2.70
2017,02,27,01,03,2.70
2017,02,27,01,04,2.60
2017,02,27,01,06,2.60
2017,02,27,01,07,2.60
2017,02,27,01,08,2.50
2017,02,27,01,09,2.50
2017,02,27,01,11,2.40
2017,02,27,01,12,2.40
2017,02,27,01,13,2.40
2017,02,27,01,14,2.30
2017,02,27,01,15,2.30
2017,02,27,01,16,2.30
2017,02,27,01,17,2.30
2017,02,27,01,18,2.30
2017,02,27,01,19,2.30
2017,02,27,01,20,2.30
2017,02,27,01,21,2.30
2017,02,27,01,22,2.30
2017,02,27,01,23,2.30
2017,02,27,01,24,2.30
2017,02,27,01,25,2.20
2017,02,27,01,26,2.20
2017,02,27,01,27,2.20
2017,02,27,01,28,2.20
2017,02,27,01,29,2.20
2017,02,27,01,30,2.20
2017,02,27,01,31,2.20
2017,02,27,01,32,2.20
2017,02,27,01,33,2.10
2017,02,27,01,34,2.10
2017,02,27,01,35,2.10
2017,02,27,02,19,2.10
2017,02,27,02,21,2.10
2017,02,27,02,22,2.20
2017,02,27,02,23,2.20
2017,02,27,02,24,2.20
2017,02,27,02,26,2.20
2017,02,27,02,27,2.20
2017,02,27,02,28,2.20
2017,02,27,02,29,2.20
2017,02,27,02,31,2.30
2017,02,27,02,32,2.30
2017,02,27,02,33,2.40
2017,02,27,02,34,2.40
2017,02,27,02,36,2.40
2017,02,27,02,37,2.40
2017,02,27,02,38,2.40
2017,02,27,02,39,2.40
2017,02,27,02,41,2.40
2017,02,27,02,42,2.30
2017,02,27,02,43,2.30
2017,02,27,02,44,2.30
2017,02,27,02,45,2.30
2017,02,27,02,46,2.30
2017,02,27,02,47,2.30
2017,02,27,02,48,2.30
2017,02,27,02,49,2.30
2017,02,27,02,50,2.30
2017,02,27,02,51,2.30
2017,02,27,02,52,2.30
2017,02,27,02,53,2.30
2017,02,27,02,54,2.30
2017,02,27,02,55,2.30
2017,02,27,02,56,2.30
2017,02,27,02,57,2.30
2017,02,27,02,58,2.30
2017,02,27,02,59,2.30
2017,02,27,03,00,2.30
2017,02,27,03,01,2.30
2017,02,27,03,02,2.30
2017,02,27,03,03,2.30
2017,02,27,03,04,2.30
2017,02,27,03,05,2.30
2017,02,27,03,06,2.30
2017,02,27,03,07,2.20
2017,02,27,03,08,2.20
2017,02,27,03,09,2.20
2017,02,27,03,10,2.20
2017,02,27,03,11,2.20
2017,02,27,03,12,2.20
2017,02,27,03,13,2.20
2017,02,27,03,14,2.20
2017,02,27,03,15,2.20
2017,02,27,03,16,2.20
2017,02,27,03,17,2.20
2017,02,27,03,18,2.20
2017,02,27,03,19,2.20
2017,02,27,03,20,2.20
2017,02,27,03,21,2.20
2017,02,27,03,22,2.20
2017,02,27,03,23,2.20
2017,02,27,03,24,2.20
2017,02,27,03,25,2.20
2017,02,27,03,26,2.20
2017,02,27,03,27,2.20
2017,02,27,03,28,2.20
2017,02,27,03,29,2.20
2017,02,27,03,30,2.20
2017,02,27,03,31,2.20
2017,02,27,03,32,2.30
2017,02,27,03,33,2.30
2017,02,27,03,34,2.30
2017,02,27,03,35,2.30
2017,02,27,03,36,2.30
2017,02,27,03,37,2.30
2017,02,27,03,38,2.30
2017,02,27,03,39,2.30
2017,02,27,03,40,2.30
2017,02,27,03,41,2.30
2017,02,27,03,42,2.30
2017,02,27,03,43,2.30
2017,02,27,03,44,2.30
2017,02,27,03,45,2.30
2017,02,27,03,46,2.30
2017,02,27,03,47,2.30
2017,02,27,03,48,2.30
2017,02,27,03,49,2.30
2017,02,27,03,50,2.30
2017,02,27,03,51,2.30
2017,02,27,03,52,2.30
2017,02,27,03,53,2.30
2017,02,27,03,54,2.30
2017,02,27,03,56,2.30
2017,02,27,03,57,2.30
2017,02,27,03,58,2.30
2017,02,27,03,59,2.20
2017,02,27,04,01,2.20
2017,02,27,04,02,2.20
2017,02,27,04,03,2.20
2017,02,27,04,04,2.20
2017,02,27,04,06,2.20
2017,02,27,04,07,2.20
2017,02,27,04,08,2.20
2017,02,27,04,09,2.20
2017,02,27,04,11,2.20
2017,02,27,04,12,2.20
2017,02,27,04,13,2.20
2017,02,27,04,14,2.20
2017,02,27,04,16,2.10
2017,02,27,04,17,2.10
2017,02,27,04,18,2.10
2017,02,27,04,19,2.10
2017,02,27,04,21,2.00
2017,02,27,04,22,2.00
2017,02,27,04,23,2.00
2017,02,27,04,24,2.00
2017,02,27,04,26,2.00
2017,02,27,04,27,2.00
2017,02,27,04,28,2.00
2017,02,27,04,29,1.90
2017,02,27,04,31,1.90
2017,02,27,04,32,1.90
2017,02,27,04,33,1.90
2017,02,27,04,34,1.90
2017,02,27,04,36,1.80
2017,02,27,04,37,1.80
2017,02,27,04,38,1.80
2017,02,27,04,39,1.80
2017,02,27,04,41,1.80
2017,02,27,04,42,1.80
2017,02,27,04,43,1.80
2017,02,27,04,44,1.80
2017,02,27,04,46,1.80
2017,02,27,04,47,1.80
2017,02,27,04,48,1.80
2017,02,27,04,49,1.80
2017,02,27,04,51,1.80
2017,02,27,04,52,1.80
2017,02,27,04,53,1.70
2017,02,27,04,54,1.70
2017,02,27,04,55,1.70
2017,02,27,04,56,1.70
2017,02,27,04,57,1.70
2017,02,27,04,58,1.70
2017,02,27,04,59,1.70
2017,02,27,05,19,2.00
2017,02,27,05,21,2.00
2017,02,27,05,22,2.00
2017,02,27,05,23,2.00
2017,02,27,05,24,2.00
2017,02,27,05,26,1.90
2017,02,27,05,27,1.90
2017,02,27,05,28,1.90
2017,02,27,06,19,2.00
2017,02,27,06,21,2.00
2017,02,27,06,22,2.00
2017,02,27,06,23,2.10
2017,02,27,06,24,2.10
2017,02,27,06,26,2.10
2017,02,27,06,27,2.10
2017,02,27,06,28,2.10
2017,02,27,06,29,2.10
2017,02,27,06,31,2.10
2017,02,27,06,32,2.20
2017,02,27,06,33,2.20
2017,02,27,06,34,2.20
2017,02,27,06,36,2.20
2017,02,27,06,37,2.20
2017,02,27,06,38,2.20
2017,02,27,06,39,2.20
2017,02,27,06,41,2.20
2017,02,27,06,42,2.20
2017,02,27,06,43,2.20
2017,02,27,06,44,2.20
2017,02,27,06,45,2.20
2017,02,27,06,46,2.20
2017,02,27,06,47,2.20
2017,02,27,06,48,2.20
2017,02,27,06,49,2.20
2017,02,27,06,50,2.20
2017,02,27,06,51,2.20
2017,02,27,06,52,2.20
2017,02,27,06,53,2.20
2017,02,27,06,54,2.20
2017,02,27,06,55,2.20
2017,02,27,06,56,2.20
2017,02,27,06,57,2.20
2017,02,27,06,58,2.20
2017,02,27,06,59,2.20
2017,02,27,07,00,2.20
2017,02,27,07,01,2.20
2017,02,27,07,02,2.20
2017,02,27,07,03,2.20
2017,02,27,07,04,2.20
2017,02,27,07,05,2.20
2017,02,27,07,06,2.20
2017,02,27,07,07,2.30
2017,02,27,07,08,2.30
2017,02,27,07,09,2.30
2017,02,27,07,10,2.30
2017,02,27,07,11,2.30
2017,02,27,07,12,2.30
2017,02,27,07,13,2.40
2017,02,27,07,14,2.40
2017,02,27,07,15,2.40
2017,02,27,07,16,2.40
2017,02,27,07,17,2.40
2017,02,27,07,18,2.40
2017,02,27,07,19,2.40
2017,02,27,07,20,2.50
2017,02,27,07,21,2.50
2017,02,27,07,22,2.50
2017,02,27,07,23,2.50
2017,02,27,07,24,2.50
2017,02,27,07,25,2.50
2017,02,27,07,26,2.60
2017,02,27,07,27,2.60
2017,02,27,07,28,2.60
2017,02,27,08,19,3.40
2017,02,27,08,21,3.40
2017,02,27,08,22,3.50
2017,02,27,08,23,3.50
2017,02,27,08,24,3.50
2017,02,27,08,26,3.50
2017,02,27,08,27,3.50
2017,02,27,08,28,3.50
2017,02,27,08,29,3.50
2017,02,27,08,31,3.60
2017,02,27,08,32,3.60
2017,02,27,08,33,3.60
2017,02,27,08,34,3.60
2017,02,27,08,36,3.70
2017,02,27,08,37,3.70
2017,02,27,08,38,3.70
2017,02,27,08,39,3.70
2017,02,27,08,41,3.80
2017,02,27,08,42,3.80
2017,02,27,08,43,3.80
2017,02,27,08,44,3.80
2017,02,27,08,45,3.80
2017,02,27,08,46,3.90
2017,02,27,08,47,3.90
2017,02,27,08,48,4.00
2017,02,27,08,49,4.00
2017,02,27,08,50,4.00
2017,02,27,08,51,4.10
2017,02,27,08,52,4.10
2017,02,27,08,53,4.10
2017,02,27,08,54,4.20
2017,02,27,08,55,4.20
2017,02,27,08,56,4.20
2017,02,27,08,57,4.20
2017,02,27,08,58,4.20
2017,02,27,08,59,4.20
2017,02,27,09,00,4.30
2017,02,27,09,01,4.30
2017,02,27,09,02,4.30
2017,02,27,09,03,4.30
2017,02,27,09,04,4.30
2017,02,27,09,05,4.30
2017,02,27,09,06,4.30
2017,02,27,09,07,4.30
2017,02,27,09,08,4.40
2017,02,27,09,09,4.40
2017,02,27,09,10,4.40
2017,02,27,09,11,4.40
2017,02,27,09,12,4.40
2017,02,27,09,13,4.40
2017,02,27,09,14,4.40
2017,02,27,09,15,4.40
2017,02,27,09,16,4.40
2017,02,27,09,17,4.40
2017,02,27,09,18,4.40
2017,02,27,09,19,4.40
2017,02,27,09,20,4.40
2017,02,27,09,21,4.40
2017,02,27,09,22,4.40
2017,02,27,09,23,4.30
2017,02,27,09,24,4.30
2017,02,27,09,25,4.30
2017,02,27,09,26,4.30
2017,02,27,09,27,4.30
2017,02,27,09,28,4.30
2017,02,27,09,29,4.30
2017,02,27,09,30,4.30
2017,02,27,09,31,4.30
2017,02,27,09,32,4.30
2017,02,27,09,33,4.30
2017,02,27,09,34,4.30
2017,02,27,09,35,4.30
2017,02,27,09,36,4.20
2017,02,27,09,37,4.20
2017,02,27,09,38,4.20
2017,02,27,09,39,4.20
2017,02,27,09,40,4.20
2017,02,27,09,41,4.10
2017,02,27,09,42,4.10
2017,02,27,09,43,4.00
2017,02,27,09,44,3.90
2017,02,27,09,45,3.80
2017,02,27,09,46,3.80
2017,02,27,09,47,3.70
2017,02,27,09,48,3.60
2017,02,27,09,49,3.50
2017,02,27,09,50,3.50
2017,02,27,09,51,3.40
2017,02,27,09,52,3.40
2017,02,27,09,53,3.30
2017,02,27,09,54,3.30
2017,02,27,09,55,3.20
2017,02,27,09,56,3.10
2017,02,27,09,57,3.10
2017,02,27,09,58,3.10
2017,02,27,09,59,2.90
2017,02,27,10,00,2.90
2017,02,27,10,01,2.90
2017,02,27,10,03,2.70
2017,02,27,10,04,2.70
2017,02,27,10,06,2.60
2017,02,27,10,07,2.50
2017,02,27,10,08,2.40
2017,02,27,10,09,2.30
2017,02,27,10,11,2.20
2017,02,27,10,12,2.20
2017,02,27,10,13,2.20
2017,02,27,10,14,2.20
2017,02,27,10,16,2.20
2017,02,27,10,17,2.20
2017,02,27,10,18,2.20
2017,02,27,10,19,2.20
2017,02,27,10,21,2.20
2017,02,27,10,22,2.20
2017,02,27,10,23,2.20
2017,02,27,10,24,2.20
2017,02,27,10,26,2.20
2017,02,27,10,27,2.20
2017,02,27,10,28,2.20
2017,02,27,10,29,2.20
2017,02,27,10,31,2.20
2017,02,27,10,32,2.10
2017,02,27,10,33,2.10
2017,02,27,10,34,2.10
2017,02,27,10,36,2.10
2017,02,27,10,37,2.10
2017,02,27,10,38,2.00
2017,02,27,10,39,2.00
2017,02,27,10,41,2.00
2017,02,27,10,42,2.00
2017,02,27,10,43,1.90
2017,02,27,10,44,1.90
2017,02,27,10,46,1.80
2017,02,27,10,47,1.80
2017,02,27,10,48,1.80
2017,02,27,10,49,1.80
2017,02,27,10,51,1.80
2017,02,27,10,52,1.80
2017,02,27,10,53,1.80
2017,02,27,10,54,1.80
2017,02,27,10,56,1.80
2017,02,27,10,57,1.80
2017,02,27,10,58,1.80
2017,02,27,10,59,1.80
2017,02,27,11,01,1.80
2017,02,27,11,02,1.80
2017,02,27,11,03,1.80
2017,02,27,11,04,1.90
2017,02,27,11,06,1.90
2017,02,27,11,07,2.00
2017,02,27,11,08,2.00
2017,02,27,11,09,2.10
2017,02,27,11,11,2.10
2017,02,27,11,12,2.10
2017,02,27,11,13,2.10
2017,02,27,11,14,2.10
2017,02,27,11,16,2.00
2017,02,27,11,17,2.00
2017,02,27,11,18,2.00
2017,02,27,11,19,2.10
2017,02,27,11,21,2.10
2017,02,27,11,22,2.10
2017,02,27,11,23,2.10
2017,02,27,11,24,2.10
2017,02,27,11,26,2.10
2017,02,27,11,27,2.00
2017,02,27,11,28,2.00
2017,02,27,11,29,2.00
2017,02,27,11,31,2.00
2017,02,27,11,32,2.00
2017,02,27,11,33,2.00
2017,02,27,11,34,2.00
2017,02,27,11,36,1.90
2017,02,27,11,37,1.90
2017,02,27,11,38,1.90
2017,02,27,11,39,1.80
2017,02,27,11,40,1.80
2017,02,27,11,41,1.80
2017,02,27,11,42,1.70
2017,02,27,11,43,1.70
2017,02,27,11,44,1.60
2017,02,27,11,45,1.60
2017,02,27,11,46,1.60
2017,02,27,11,47,1.50
2017,02,27,11,48,1.50
2017,02,27,11,49,1.40
2017,02,27,11,50,1.40
2017,02,27,11,51,1.40
2017,02,27,11,52,1.40
2017,02,27,11,53,1.40
2017,02,27,11,54,1.30
2017,02,27,11,55,1.30
2017,02,27,11,56,1.30
2017,02,27,11,57,1.30
2017,02,27,11,58,1.30
2017,02,27,11,59,1.20
2017,02,27,12,00,1.20
2017,02,27,12,01,1.20
2017,02,27,12,02,1.10
2017,02,27,12,03,1.10
2017,02,27,12,04,1.10
2017,02,27,12,05,1.10
2017,02,27,12,06,1.00
2017,02,27,12,07,1.00
2017,02,27,12,08,1.00
2017,02,27,12,09,1.00
2017,02,27,12,10,1.00
2017,02,27,12,11,0.90
2017,02,27,12,12,0.90
2017,02,27,12,13,0.90
2017,02,27,12,14,0.90
2017,02,27,12,15,0.90
2017,02,27,12,16,0.90
2017,02,27,12,17,0.90
2017,02,27,12,18,0.90
2017,02,27,12,19,1.00
2017,02,27,12,20,1.00
2017,02,27,12,21,1.00
2017,02,27,12,22,1.00
2017,02,27,12,23,1.00
2017,02,27,12,24,1.00
2017,02,27,12,25,1.00
2017,02,27,12,26,1.00
2017,02,27,12,27,1.00
2017,02,27,12,28,1.00
2017,02,27,12,29,1.00
2017,02,27,12,30,1.00
2017,02,27,12,31,1.00
2017,02,27,12,32,1.10
2017,02,27,12,33,1.10
2017,02,27,12,34,1.10
2017,02,27,12,35,1.10
2017,02,27,12,36,1.20
2017,02,27,12,37,1.20
2017,02,27,12,38,1.20
2017,02,27,12,39,1.30
2017,02,27,12,40,1.30
2017,02,27,12,41,1.30
2017,02,27,12,42,1.30
2017,02,27,12,43,1.40
2017,02,27,12,44,1.40
2017,02,27,12,45,1.40
2017,02,27,12,46,1.50
2017,02,27,12,47,1.50
2017,02,27,12,48,1.50
2017,02,27,12,49,1.60
2017,02,27,12,50,1.60
2017,02,27,12,51,1.60
2017,02,27,12,52,1.60
2017,02,27,12,53,1.60
2017,02,27,12,54,1.60
2017,02,27,12,55,1.60
2017,02,27,12,56,1.60
2017,02,27,12,58,1.70
2017,02,27,12,59,1.70
2017,02,27,13,00,1.70
2017,02,27,13,02,1.70
2017,02,27,13,03,1.70
2017,02,27,13,04,1.80
2017,02,27,13,06,1.80
2017,02,27,13,07,1.80
2017,02,27,13,08,1.80
2017,02,27,13,09,1.80
2017,02,27,13,11,1.80
2017,02,27,13,12,1.80
2017,02,27,13,13,1.80
2017,02,27,13,14,1.80
2017,02,27,13,16,1.80
2017,02,27,13,17,1.80
2017,02,27,13,18,1.80
2017,02,27,13,19,1.80
2017,02,27,13,21,1.80
2017,02,27,13,22,1.80
2017,02,27,13,23,1.90
2017,02,27,13,24,1.90
2017,02,27,13,26,1.90
2017,02,27,13,27,2.00
2017,02,27,13,28,2.00
2017,02,27,13,29,2.10
2017,02,27,13,31,2.20
2017,02,27,13,32,2.20
2017,02,27,13,33,2.20
2017,02,27,13,34,2.20
2017,02,27,13,36,2.30
2017,02,27,13,37,2.30
2017,02,27,13,38,2.30
2017,02,27,13,39,2.40
2017,02,27,13,41,2.40
2017,02,27,13,42,2.30
2017,02,27,13,43,2.30
2017,02,27,13,44,2.30
2017,02,27,13,46,2.20
2017,02,27,13,47,2.20
2017,02,27,13,48,2.20
2017,02,27,13,49,2.20
2017,02,27,13,51,2.20
2017,02,27,13,52,2.20
2017,02,27,13,53,2.30
2017,02,27,13,54,2.40
2017,02,27,13,56,2.50
2017,02,27,13,57,2.50
2017,02,27,13,58,2.60
2017,02,27,13,59,2.50
2017,02,27,14,01,2.50
2017,02,27,14,02,2.50
2017,02,27,14,03,2.50
2017,02,27,14,04,2.50
2017,02,27,14,06,2.50
2017,02,27,14,07,2.50
2017,02,27,14,08,2.50
2017,02,27,14,09,2.50
2017,02,27,14,11,2.50
2017,02,27,14,12,2.50
2017,02,27,14,13,2.50
2017,02,27,14,14,2.40
2017,02,27,14,15,2.40
2017,02,27,14,16,2.40
2017,02,27,14,17,2.40
2017,02,27,15,19,2.60
2017,02,27,15,21,2.50
2017,02,27,15,22,2.50
2017,02,27,15,23,2.50
2017,02,27,15,24,2.50
2017,02,27,15,26,2.50
2017,02,27,15,27,2.50
2017,02,27,15,28,2.50
2017,02,27,15,29,2.50
2017,02,27,15,31,2.50
2017,02,27,15,32,2.60
2017,02,27,15,33,2.60
2017,02,27,15,34,2.70
2017,02,27,15,36,2.70
2017,02,27,15,37,2.70
2017,02,27,15,38,2.70
2017,02,27,15,39,2.70
2017,02,27,15,41,2.70
2017,02,27,15,42,2.70
2017,02,27,15,43,2.70
2017,02,27,15,44,2.70
2017,02,27,15,45,2.70
2017,02,27,15,46,2.60
2017,02,27,15,47,2.60
2017,02,27,15,48,2.60
2017,02,27,15,49,2.60
2017,02,27,15,50,2.60
2017,02,27,15,51,2.60
2017,02,27,15,52,2.60
2017,02,27,15,53,2.70
2017,02,27,15,54,2.70
2017,02,27,15,55,2.70
2017,02,27,15,56,2.70
2017,02,27,15,57,2.80
2017,02,27,15,58,2.80
2017,02,27,15,59,2.80
2017,02,27,16,00,2.90
2017,02,27,16,01,2.90
2017,02,27,16,02,2.90
2017,02,27,16,03,2.90
2017,02,27,16,04,3.10
2017,02,27,16,05,3.10
2017,02,27,16,06,3.10
2017,02,27,16,07,3.10
2017,02,27,16,08,3.10
2017,02,27,16,09,3.10
2017,02,27,16,10,3.10
2017,02,27,16,11,3.10
2017,02,27,16,12,2.90
2017,02,27,16,13,2.90
2017,02,27,16,14,2.90
2017,02,27,16,15,2.90
2017,02,27,16,16,2.90
2017,02,27,16,17,2.90
2017,02,27,16,18,2.90
2017,02,27,16,19,2.90
2017,02,27,16,20,2.90
2017,02,27,16,21,2.80
2017,02,27,16,22,2.80
2017,02,27,16,23,2.80
2017,02,27,16,24,2.80
2017,02,27,16,25,2.80
2017,02,27,16,26,2.80
2017,02,27,16,27,2.80
2017,02,27,16,28,2.80
2017,02,27,16,29,2.70
2017,02,27,16,30,2.70
2017,02,27,16,31,2.70
2017,02,27,16,32,2.70
2017,02,27,16,33,2.70
2017,02,27,16,34,2.70
2017,02,27,16,35,2.70
2017,02,27,16,36,2.70
2017,02,27,16,37,2.70
2017,02,27,16,38,2.70
2017,02,27,16,39,2.70
2017,02,27,16,40,2.70
2017,02,27,16,41,2.70
2017,02,27,16,42,2.70
2017,02,27,16,43,2.70
2017,02,27,16,44,2.70
2017,02,27,16,45,2.70
2017,02,27,16,46,2.60
2017,02,27,16,47,2.60
2017,02,27,16,48,2.60
2017,02,27,16,49,2.60
2017,02,27,16,50,2.60
2017,02,27,16,51,2.60
2017,02,27,16,53,2.60
2017,02,27,16,54,2.60
2017,02,27,16,56,2.60
2017,02,27,16,57,2.70
2017,02,27,16,58,2.70
2017,02,27,16,59,2.70
2017,02,27,17,00,2.70
2017,02,27,17,02,2.70
2017,02,27,17,03,2.60
2017,02,27,17,04,2.60
2017,02,27,17,06,2.70
2017,02,27,17,07,2.70
2017,02,27,17,08,2.70
2017,02,27,17,09,2.70
2017,02,27,17,11,2.70
2017,02,27,17,12,2.70
2017,02,27,17,13,2.70
2017,02,27,17,14,2.70
2017,02,27,17,16,2.70
2017,02,27,17,17,2.70
2017,02,27,17,18,2.80
2017,02,27,17,19,2.80
2017,02,27,17,21,2.80
2017,02,27,17,22,2.80
2017,02,27,17,23,2.70
2017,02,27,17,24,2.70
2017,02,27,17,26,2.70
2017,02,27,17,27,2.70
2017,02,27,17,28,2.70
2017,02,27,17,29,2.70
2017,02,27,17,31,2.70
2017,02,27,17,32,2.70
2017,02,27,17,33,2.70
2017,02,27,17,34,2.70
2017,02,27,17,36,2.70
2017,02,27,17,37,2.70
2017,02,27,17,38,2.70
2017,02,27,17,39,2.70
2017,02,27,17,41,2.70
2017,02,27,17,42,2.70
2017,02,27,17,43,2.60
2017,02,27,17,44,2.60
2017,02,27,17,46,2.60
2017,02,27,17,47,2.50
2017,02,27,17,48,2.50
2017,02,27,17,49,2.50
2017,02,27,17,51,2.50
2017,02,27,17,52,2.50
2017,02,27,17,53,2.50
2017,02,27,17,54,2.50
2017,02,27,17,56,2.60
2017,02,27,17,57,2.60
2017,02,27,17,58,2.60
2017,02,27,17,59,2.60
2017,02,27,18,01,2.70
2017,02,27,18,02,2.70
2017,02,27,18,03,2.70
2017,02,27,18,04,2.70
2017,02,27,18,06,2.70
2017,02,27,18,07,2.70
2017,02,27,18,08,2.70
2017,02,27,18,09,2.70
2017,02,27,18,11,2.70
2017,02,27,18,12,2.70
2017,02,27,18,13,2.70
2017,02,27,18,14,2.80
2017,02,27,18,15,2.80
2017,02,27,18,16,2.80
2017,02,27,18,17,2.80
2017,02,27,18,18,2.80
2017,02,27,18,19,2.80
2017,02,27,18,21,2.80
2017,02,27,18,22,2.80
2017,02,27,18,23,2.80
2017,02,27,18,24,2.80
2017,02,27,18,25,2.80
2017,02,27,18,26,2.80
2017,02,27,18,27,2.80
2017,02,27,18,28,2.80
2017,02,27,18,29,2.80
2017,02,27,18,30,2.80
2017,02,27,18,31,2.80
2017,02,27,18,32,2.90
2017,02,27,18,33,2.90
2017,02,27,18,34,2.90
2017,02,27,18,35,2.90
2017,02,27,18,36,2.90
2017,02,27,18,37,2.90
2017,02,27,18,38,2.90
2017,02,27,18,39,2.90
2017,02,27,18,40,2.90
2017,02,27,18,41,2.90
2017,02,27,18,42,2.90
2017,02,27,18,43,2.90
2017,02,27,18,44,2.90
2017,02,27,18,45,3.10
2017,02,27,18,46,3.10
2017,02,27,18,47,3.10
2017,02,27,18,48,3.10
2017,02,27,18,49,3.10
2017,02,27,18,50,2.90
2017,02,27,18,51,2.90
2017,02,27,18,52,2.90
2017,02,27,18,53,2.90
2017,02,27,18,54,2.90
2017,02,27,18,55,2.90
2017,02,27,18,56,2.90
2017,02,27,18,57,2.90
2017,02,27,18,58,2.90
2017,02,27,18,59,2.90
2017,02,27,19,00,2.90
2017,02,27,19,01,2.90
2017,02,27,19,02,2.90
2017,02,27,19,03,2.90
2017,02,27,19,04,2.90
2017,02,27,19,05,2.90
2017,02,27,19,06,2.90
2017,02,27,19,07,2.90
2017,02,27,19,08,2.90
2017,02,27,19,09,2.90
2017,02,27,19,10,2.90
2017,02,27,19,11,2.90
2017,02,27,19,12,2.90
2017,02,27,19,13,2.90
2017,02,27,19,14,2.90
2017,02,27,19,15,2.90
2017,02,27,19,16,2.90
2017,02,27,19,17,2.90
2017,02,27,19,18,2.90
2017,02,27,19,19,3.10
2017,02,27,19,20,3.10
2017,02,27,19,21,3.10
2017,02,27,19,22,3.10
2017,02,27,19,23,3.10
2017,02,27,19,24,3.10
2017,02,27,19,25,3.10
2017,02,27,19,26,3.10
2017,02,27,19,27,3.10
2017,02,27,19,28,3.10
2017,02,27,19,29,3.10
2017,02,27,19,30,3.10
2017,02,27,19,31,3.10
2017,02,27,19,32,3.10
2017,02,27,19,34,3.10
2017,02,27,19,36,3.10
2017,02,27,19,37,3.10
2017,02,27,19,38,2.90
2017,02,27,19,39,2.90
2017,02,27,19,41,2.90
2017,02,27,19,42,2.90
2017,02,27,19,43,2.90
2017,02,27,19,44,2.80
2017,02,27,19,46,2.80
2017,02,27,19,47,2.70
2017,02,27,19,48,2.70
2017,02,27,19,49,2.70
2017,02,27,19,51,2.70
2017,02,27,19,52,2.70
2017,02,27,19,53,2.70
2017,02,27,19,54,2.70
2017,02,27,19,56,2.60
2017,02,27,19,57,2.60
2017,02,27,19,58,2.60
2017,02,27,19,59,2.50
2017,02,27,20,01,2.50
2017,02,27,20,02,2.40
2017,02,27,20,03,2.40
2017,02,27,20,04,2.40
2017,02,27,20,06,2.40
2017,02,27,20,07,2.30
2017,02,27,20,08,2.30
2017,02,27,20,09,2.30
2017,02,27,20,11,2.30
2017,02,27,20,12,2.30
2017,02,27,20,13,2.30
2017,02,27,20,14,2.30
2017,02,27,20,16,2.20
2017,02,27,20,17,2.20
2017,02,27,20,18,2.20
2017,02,27,20,19,2.20
2017,02,27,20,21,2.20
2017,02,27,20,22,2.20
2017,02,27,20,23,2.20
2017,02,27,20,24,2.20
2017,02,27,20,26,2.20
2017,02,27,20,27,2.20
2017,02,27,20,28,2.20
2017,02,27,20,29,2.20
2017,02,27,20,31,2.10
2017,02,27,20,32,2.10
2017,02,27,20,33,2.10
2017,02,27,20,34,2.10
2017,02,27,20,36,2.00
2017,02,27,20,37,2.00
2017,02,27,20,38,2.00
2017,02,27,20,39,2.00
2017,02,27,20,41,2.00
2017,02,27,20,42,2.00
2017,02,27,20,43,2.00
2017,02,27,20,44,2.00
2017,02,27,20,46,2.00
2017,02,27,20,47,2.00
2017,02,27,20,48,2.00
2017,02,27,20,49,1.90
2017,02,27,20,51,2.00
2017,02,27,20,56,2.00
2017,02,27,20,57,2.10
2017,02,27,20,58,2.10
2017,02,27,20,59,2.10
2017,02,27,21,00,2.10
2017,02,27,21,01,2.00
2017,02,27,21,19,1.70
2017,02,27,21,21,1.70
2017,02,27,21,22,1.70
2017,02,27,21,23,1.70
2017,02,27,21,24,1.60
2017,02,27,21,26,1.60
2017,02,27,21,27,1.60
2017,02,27,21,29,1.60
2017,02,27,21,30,1.60
2017,02,27,21,31,1.60
2017,02,27,21,32,1.50
2017,02,27,21,33,1.50
2017,02,27,21,34,1.50
2017,02,27,21,35,1.50
2017,02,27,21,36,1.50
2017,02,27,21,40,1.40
2017,02,27,21,41,1.40
2017,02,27,21,42,1.40
2017,02,27,21,43,1.40
2017,02,27,21,44,1.40
2017,02,27,21,45,1.40
2017,02,27,21,46,1.40
2017,02,27,21,47,1.40
2017,02,27,22,19,1.20
2017,02,27,22,21,1.20
2017,02,27,22,22,1.20
2017,02,27,22,23,1.20
2017,02,27,23,19,1.30
2017,02,27,23,21,1.30
2017,02,27,23,22,1.30
2017,02,27,23,23,1.30
2017,02,27,23,24,1.30
2017,02,27,23,26,1.30
2017,02,27,23,27,1.30
2017,02,27,23,28,1.30
2017,02,27,23,29,1.30
2017,02,27,23,31,1.30
2017,02,27,23,32,1.30
2017,02,27,23,33,1.30
2017,02,27,23,34,1.30
2017,02,27,23,36,1.30
2017,02,27,23,37,1.30
2017,02,27,23,38,1.30
2017,02,27,23,39,1.30
2017,02,27,23,41,1.30
2017,02,27,23,42,1.30
2017,02,27,23,43,1.20
2017,02,27,23,44,1.20
2017,02,27,23,45,1.20
2017,02,27,23,46,1.20
2017,02,27,23,47,1.20
2017,02,27,23,48,1.20
2017,02,27,23,49,1.20
2017,02,27,23,50,1.20
2017,02,27,23,51,1.20
2017,02,27,23,52,1.20
2017,02,27,23,53,1.20
2017,02,27,23,54,1.20
2017,02,27,23,55,1.20
2017,02,27,23,56,1.20
2017,02,27,23,57,1.20
2017,02,27,23,58,1.20
2017,02,27,23,59,1.20
